User: anonymous   Login
Location: Maiden
(35.5760°N, 81.2120°W)
Time: 10:45:08
(UTC-04:00)
Language:

Cosmos 2151 - Orbit

View from above orbital plane
View from above orbital plane
View from above satellite
View from above satellite

Ground track
Ground track

The orbit data is extracted from the following two-line orbital elements,

1 21422U 91042A   15238.77068655 +.00000462 +00000-0 +43788-4 0  9996
2 21422 082.5033 154.6990 0014082 345.8696 014.2127 14.91284501288970
Epoch (UTC): 26 August 2015 18:29:47
Eccentricity: 0.0014082
inclination: 82.5033°
perigee height: 584 km
apogee height: 604 km
right ascension of ascending node: 154.6990°
argument of perigee: 345.8696°
revolutions per day: 14.91284501
mean anomaly at epoch: 14.2127°
orbit number at epoch: 28897

The dashed part of the orbit path shows where the satellite is in the earth's shadow,  

DLR